Fairbanks, AK

1:49 PM AKDT on July 20, 2019 (GMT -0800)
Fairbanks International

Weather History for PAFA - May, 2019

Change the Weather History Date:

Sunday, May 26, 2019

  Actual Average Record
Temperature  
Mean Temperature 66 °F 53 °F  
Max Temperature 75 °F 65 °F 80 °F (2002)
Min Temperature 56 °F 42 °F 30 °F (1920)
Degree Days  
Heating Degree Days 0 12  
Month to date heating degree days 311 433  
Since 1 July heating degree days 11573 13457  
Cooling Degree Days 1 0  
Month to date cooling degree days 1 0  
Year to date cooling degree days 1 0  
Growing Degree Days 15 (Base 50)    
Moisture  
Dew Point 42 °F    
Average Humidity 42    
Maximum Humidity 58    
Minimum Humidity 21    
Precipitation  
Precipitation 0.00 in 0.02 in 0.59 in (1944)
Month to date precipitation 0.68 0.48  
Year to date precipitation 3.16 2.04  
Snow  
Snow 0.00 in 0.00 in T in (2017)
Month to date snowfall T 0.9  
Since 1 July snowfall 57.5 65.0  
Snow Depth 0.00 in    
Sea Level Pressure  
Sea Level Pressure 29.66 in    
Wind  
Wind Speed 2 mph (NNE)    
Max Wind Speed 14 mph    
Max Gust Speed 17 mph    
Visibility 10 miles    
Events      
T = Trace of Precipitation, MM = Missing Value Source: NWS Daily Summary

Daily Weather History Graph

Daily Weather History Graph

Search for Another Location

Airport or City:

Astronomy

May. 26, 2019 Rise Set
Actual Time 3:52 AM AKDT 11:47 PM AKDT
Civil Twilight 2:20 AM AKDT 1:16 AM AKDT
Nautical Twilight Sun does not set Sun does not set
Astronomical Twilight Sun does not set Sun does not set
Moon 4:07 AM AKDT (5/26) 12:21 PM AKDT (5/26)
Length of Visible Light 22h 55m
Length of Day
19h 55m
Waning Gibbous, 49% of the Moon is Illuminated
May 26
Waning Gibbous
Jun 3
New
Jun 9
First Quarter
Jun 17
Full
Jun 25
Last Quarter

Hourly Weather History & Observations

Time (AKDT) Temp. Dew Point Humidity Pressure Visibility Wind Dir Wind Speed Gust Speed Precip Events Conditions
12:53 AM 61.0 °F 44.1 °F 54% 29.74 in 10.0 mi Calm Calm - N/A   Mostly Cloudy
1:53 AM 60.1 °F 42.1 °F 51% 29.75 in 10.0 mi Calm Calm - N/A   Mostly Cloudy
2:53 AM 57.9 °F 39.9 °F 51% 29.77 in 10.0 mi Calm Calm - N/A   Mostly Cloudy
3:53 AM 59.0 °F 37.0 °F 44% 29.76 in 10.0 mi NNW 4.6 mph - N/A   Mostly Cloudy
4:53 AM 57.9 °F 37.0 °F 46% 29.76 in 10.0 mi NNW 5.8 mph - N/A   Mostly Cloudy
5:53 AM 57.0 °F 37.9 °F 49% 29.76 in 10.0 mi SW 3.5 mph - N/A   Mostly Cloudy
6:53 AM 57.0 °F 41.0 °F 55% 29.76 in 10.0 mi Calm Calm - N/A   Mostly Cloudy
7:53 AM 57.9 °F 39.9 °F 51% 29.77 in 10.0 mi Calm Calm - N/A   Overcast
8:53 AM 61.0 °F 42.1 °F 50% 29.76 in 10.0 mi Calm Calm - N/A   Overcast
9:53 AM 62.1 °F 42.1 °F 48% 29.76 in 10.0 mi Calm Calm - N/A   Mostly Cloudy
10:53 AM 64.0 °F 39.9 °F 41% 29.75 in 10.0 mi Calm Calm - N/A   Overcast
11:53 AM 66.0 °F 42.1 °F 42% 29.73 in 10.0 mi East 3.5 mph - N/A   Mostly Cloudy
12:53 PM 68.0 °F 39.0 °F 35% 29.72 in 10.0 mi Calm Calm - N/A   Mostly Cloudy
1:53 PM 69.1 °F 39.0 °F 33% 29.69 in 10.0 mi Calm Calm - N/A   Mostly Cloudy
2:53 PM 71.1 °F 39.9 °F 32% 29.66 in 10.0 mi Calm Calm - N/A   Mostly Cloudy
3:53 PM 73.0 °F 41.0 °F 31% 29.62 in 10.0 mi North 4.6 mph - N/A   Mostly Cloudy
4:53 PM 72.0 °F 42.1 °F 34% 29.58 in 10.0 mi NNW 6.9 mph - N/A   Mostly Cloudy
5:53 PM 73.0 °F 43.0 °F 34% 29.55 in 10.0 mi NNW 8.1 mph - N/A   Mostly Cloudy
6:53 PM 75.0 °F 45.0 °F 34% 29.51 in 10.0 mi North 13.8 mph - N/A   Mostly Cloudy
7:53 PM 75.0 °F 45.0 °F 34% 29.48 in 9.0 mi East 10.4 mph 17.3 mph N/A   Mostly Cloudy
8:53 PM 71.1 °F 46.9 °F 42% 29.48 in 7.0 mi East 5.8 mph - N/A   Mostly Cloudy
9:53 PM 69.1 °F 48.0 °F 47% 29.48 in 6.0 mi ESE 4.6 mph - N/A   Smoke
10:53 PM 64.0 °F 46.9 °F 54% 29.48 in 10.0 mi SSW 4.6 mph - N/A   Mostly Cloudy
11:53 PM 62.1 °F 46.9 °F 58% 29.50 in 10.0 mi SSW 5.8 mph - N/A   Mostly Cloudy